Regional Weather Roundup
Issued by NWS State College, PA

Home | Current Version | Previous Version | Text Only | Print | Product List | Glossary On
Versions: 1 2 3 4 5 6 7 8 9 10 11 12 13 14 15 16 17 18 19 20 21 22 23 24 25 26 27 28 29 30 31 32 33 34 35 36 37 38 39 40 41 42 43 44 45 46 47 48 49 50
000
ASUS41 KCTP 251803
RWRCTP

REGIONAL WEATHER ROUNDUP
NATIONAL WEATHER SERVICE STATE COLLEGE PA
100 PM EST SUN JAN 25 2015

Note: "fair" indicates few or no clouds below 12,000 feet with no
significant weather and/or obstructions to visibility.

* = STATION THAT DOES NOT REPORT PRECIPITATION /E.G. RAIN...SNOW...ETC/
    THUNDER OR FOG.

PAZ002>004-007>009-013>016-020>023-029>032-251900-
WESTERN PENNSYLVANIA

CITY           SKY/WX    TMP DP  RH WIND       PRES   REMARKS
ERIE           CLOUDY    22  15  75 NE17      29.88S WCI   8
MEADVILLE      CLOUDY    24  16  71 NE8       29.80F
FRANKLIN*      CLOUDY    27  19  74 CALM      29.80F
NEW CASTLE     LGT SNOW  29  26  88 NE8       29.82F FOG
BEAVER COUNTY  NOT AVBL
BUTLER*        CLOUDY    30  28  93 NE9       29.80F
PITTSBURGH INT LGT SNOW  35  32  88 CALM      29.78F FOG
PITTSBURGH     CLOUDY    34  29  82 SW3       29.77F FOG
INDIANA*       FOG       34  34 100 SW6       29.82S VSB 1/2
LATROBE        NOT AVBL
WASHINGTON CO* CLOUDY    36  30  80 CALM      29.79F
$$

PAZ004>006-010>012-017>019-024>028-033>037-041-042-045-046-049>053-251900-
CENTRAL PENNSYLVANIA

CITY           SKY/WX    TMP DP  RH WIND       PRES   REMARKS
BRADFORD       CLOUDY    23  10  57 CALM      29.75S
DUBOIS         CLOUDY    28  21  75 N5        29.76S
CLEARFIELD     LGT SNOW  31  24  75 N3        29.78S
JOHNSTOWN      SNOW      31  29  92 W7        29.74S VSB<1/4
ALTOONA        LGT SNOW  34  33  96 SW6       29.78F FOG
STATE COLLEGE  FLURRIES  34  27  75 CALM      29.79S
WILLIAMSPORT   CLOUDY    37  15  40 N12       29.81S
SELINSGROVE    CLOUDY    39  27  62 NW3       29.81F
FT INDIANTOWN  DRIZZLE   37  32  84 SW6       29.81F
CAPITAL CITY   CLOUDY    40  31  70 NW5       29.82F
HARRISBURG     LGT RAIN  38  32  79 NW7       29.81F
YORK           CLOUDY    40  30  67 CALM      29.80F
$$

PAZ038>040-043-044-047-048-054-055-060>062-067>071-251900-
EASTERN PENNSYLVANIA

CITY           SKY/WX    TMP DP  RH WIND       PRES   REMARKS
SCRANTON       MOSUNNY   33  10  38 NW12      29.80R
MOUNT POCONO   SUNNY     30  11  45 NW14G23   29.73R
ALLENTOWN      CLOUDY    39  29  67 W7        29.80R
QUAKERTOWN*    NOT AVBL
READING        CLOUDY    40  30  67 W9        29.80F
LANCASTER      PTSUNNY   38  30  73 NW9       29.79F
COATESVILLE    MOCLDY    41  34  75 NW14G20   29.79F
POTTSTOWN      PTSUNNY   40  30  67 W7        29.81F
BLUE BELL      MOSUNNY   43  32  65 W7G16     29.79F
DOYLESTOWN     CLOUDY    38  30  73 W7        29.79S
WILLOW GROVE   NOT AVBL
NORTH PHILA    MOSUNNY   45  28  51 W16G24    29.81F
PHILADELPHIA   PTSUNNY   46  29  51 NW13G21   29.81F
$$



USA.gov is the U.S. government's official web portal to all federal, state and local government web resources and services.